DW2819 Weather Reports


Display with metric or nautical units.
time (UTC)temp
F
wind
direction
speed
MPH
gust
MPH
rain 1hr
in
rain 24hr
in
rain mn
in
humidity
%
barometer
mb
20260902182351 57 54 0.0 0.0 0.00 0.00 0.00 88 1008.0
20260902181849 58 54 0.0 0.0 0.00 0.00 0.00 88 1008.0
20260902181349 58 54 0.0 0.0 0.00 0.00 0.00 87 1007.9
20260902180848 58 54 0.0 0.0 0.00 0.00 0.00 87 1008.0
20260902180348 58 54 0.0 0.0 0.00 0.00 0.00 86 1008.0
20260902175847 58 54 0.0 0.0 0.00 0.00 0.00 86 1008.0
20260902175349 58 54 0.0 0.0 0.00 0.00 0.00 85 1008.0
20260902174850 58 54 0.0 0.0 0.00 0.00 0.00 84 1008.1
20260902174348 58 54 0.0 0.0 0.00 0.00 0.00 83 1008.0
20260902173849 58 54 0.0 0.0 0.00 0.00 0.00 83 1008.0
20260902173348 59 54 0.0 0.0 0.00 0.00 0.00 82 1008.0
20260902172849 59 54 0.0 0.0 0.00 0.00 0.00 82 1007.9
20260902172351 59 54 0.0 0.0 0.00 0.00 0.00 81 1007.9
20260902171853 60 54 0.0 0.0 0.00 0.00 0.00 81 1007.9
20260902170353 60 54 0.0 0.0 0.00 0.00 0.00 79 1007.8
20260902165852 60 54 0.0 0.0 0.00 0.00 0.00 80 1007.8
20260902165354 61 54 0.0 0.0 0.00 0.00 0.00 80 1007.7
20260902164852 61 54 0.0 2.0 0.00 0.00 0.00 79 1007.7
20260902163852 61 94 0.0 1.0 0.00 0.00 0.00 78 1007.6
20260902162851 62 137 0.0 0.0 0.00 0.00 0.00 78 1007.7
20260902162352 62 137 0.0 0.0 0.00 0.00 0.00 76 1007.6
20260902161853 63 137 0.0 0.0 0.00 0.00 0.00 75 1007.6
20260902161354 63 137 0.0 0.0 0.00 0.00 0.00 75 1007.6
20260902160351 64 82 0.0 2.0 0.00 0.00 0.00 74 1007.6
20260902155855 64 202 0.0 2.0 0.00 0.00 0.00 73 1007.7
20260902155354 64 331 0.0 4.0 0.00 0.00 0.00 74 1007.6
20260902154851 64 327 1.0 4.0 0.00 0.00 0.00 71 1007.7
20260902153329 65 135 1.0 3.0 0.00 0.00 0.00 74 1007.7
20260902152828 65 223 1.0 2.0 0.00 0.00 0.00 72 1007.6
20260902152327 65 18 1.0 3.0 0.00 0.00 0.00 73 1007.7
20260902151825 65 321 0.0 3.0 0.00 0.00 0.00 74 1007.7
20260902151313 65 75 0.0 1.0 0.00 0.00 0.00 73 1007.7
20260902150812 65 193 0.0 2.0 0.00 0.00 0.00 72 1007.7
20260902150310 65 189 0.0 3.0 0.00 0.00 0.00 71 1007.8
20260902145802 65 0 0.0 3.0 0.00 0.00 0.00 71 1007.9
20260902145301 65 58 0.0 2.0 0.00 0.00 0.00 71 1007.8
20260902144809 65 89 0.0 2.0 0.00 0.00 0.00 68 1007.8
20260902144301 65 324 0.0 3.0 0.00 0.00 0.00 70 1007.8
20260902143301 66 21 1.0 2.0 0.00 0.00 0.00 68 1007.9
20260902142301 66 34 0.0 3.0 0.00 0.00 0.00 67 1007.9
20260902141801 66 11 0.0 4.0 0.00 0.00 0.00 65 1007.8
20260902140805 66 14 0.0 2.0 0.00 0.00 0.00 66 1007.9
20260902135800 66 233 0.0 2.0 0.00 0.00 0.00 66 1007.8
20260902135300 66 354 0.0 4.0 0.00 0.00 0.00 65 1007.8
20260902134758 66 317 1.0 4.0 0.00 0.00 0.00 65 1007.9
20260902134258 66 182 0.0 2.0 0.00 0.00 0.00 67 1007.8
20260902133259 66 334 0.0 2.0 0.00 0.00 0.00 68 1007.8
20260902132800 66 343 0.0 1.0 0.00 0.00 0.00 68 1007.9
20260902131752 66 306 0.0 2.0 0.00 0.00 0.00 63 1007.9
20260902130755 66 353 0.0 3.0 0.00 0.00 0.00 65 1007.9
20260902130250 66 6 1.0 2.0 0.00 0.00 0.00 64 1007.9
20260902125753 66 0 1.0 3.0 0.00 0.00 0.00 65 1007.9
20260902125253 66 3 1.0 3.0 0.00 0.00 0.00 65 1007.9
20260902124751 66 104 1.0 3.0 0.00 0.00 0.00 67 1008.0
20260902124252 66 248 1.0 3.0 0.00 0.00 0.00 66 1008.0
20260902123752 66 321 0.0 3.0 0.00 0.00 0.00 65 1008.0
20260902123250 66 168 0.0 3.0 0.00 0.00 0.00 66 1008.0
20260902122748 66 0 1.0 3.0 0.00 0.00 0.00 64 1008.0
20260902121245 66 283 0.0 4.0 0.00 0.00 0.00 64 1008.1
20260902115738 65 0 1.0 2.0 0.00 0.00 0.00 67 1008.0
20260902115235 65 13 1.0 3.0 0.00 0.00 0.00 67 1008.0
20260902114719 65 226 0.0 3.0 0.00 0.00 0.00 68 1008.0
20260902114215 65 1 0.0 3.0 0.00 0.01 0.00 67 1008.0
20260902113706 65 90 0.0 2.0 0.00 0.01 0.00 68 1008.2
20260902113204 65 202 0.0 3.0 0.00 0.01 0.00 64 1008.2
20260902112710 65 265 1.0 3.0 0.00 0.01 0.00 66 1008.2
20260902112210 65 0 1.0 3.0 0.00 0.01 0.00 65 1008.2
20260902111708 64 320 1.0 3.0 0.00 0.01 0.00 64 1008.2
20260902111207 64 344 0.0 2.0 0.00 0.01 0.00 65 1008.2
20260902110709 64 30 0.0 2.0 0.00 0.01 0.00 67 1008.3
20260902110207 64 355 0.0 2.0 0.00 0.01 0.00 67 1008.4
20260902105701 64 79 0.0 2.0 0.00 0.01 0.00 66 1008.3
20260902105204 64 341 1.0 4.0 0.00 0.01 0.00 67 1008.4
20260902104704 64 3 0.0 4.0 0.00 0.01 0.00 67 1008.4
20260902104215 64 330 2.0 4.0 0.00 0.01 0.00 66 1008.4
20260902103710 64 238 1.0 2.0 0.00 0.01 0.00 68 1008.4
20260902103211 64 281 0.0 1.0 0.00 0.01 0.00 68 1008.3
20260902102704 64 279 0.0 2.0 0.00 0.01 0.00 67 1008.4
20260902102148 64 293 1.0 3.0 0.00 0.01 0.00 67 1008.4
20260902101158 64 344 1.0 2.0 0.00 0.01 0.00 68 1008.4
20260902100659 65 310 0.0 2.0 0.00 0.01 0.00 67 1008.3
20260902100153 65 338 0.0 2.0 0.00 0.01 0.00 66 1008.4
20260902095651 65 341 0.0 2.0 0.00 0.01 0.00 65 1008.4
20260902094651 64 317 0.0 1.0 0.00 0.01 0.00 68 1008.3
20260902094153 64 319 0.0 1.0 0.00 0.01 0.00 70 1008.2
20260902093652 64 314 0.0 1.0 0.00 0.01 0.00 67 1008.3
20260902092651 64 265 0.0 3.0 0.00 0.01 0.00 69 1008.4
20260902092151 64 0 0.0 3.0 0.00 0.01 0.00 71 1008.4
20260902091652 63 128 0.0 2.0 0.00 0.01 0.00 73 1008.4
20260902091151 63 264 1.0 2.0 0.00 0.01 0.00 68 1008.5
20260902090651 64 275 0.0 3.0 0.00 0.01 0.00 70 1008.4
20260902085150 63 283 0.0 2.0 0.00 0.01 0.00 70 1008.3
20260902084652 63 340 0.0 2.0 0.00 0.01 0.00 71 1008.5
20260902084152 63 313 0.0 3.0 0.00 0.01 0.00 70 1008.4
20260902083650 62 51 0.0 3.0 0.00 0.01 0.00 72 1008.3
20260902083150 62 282 0.0 2.0 0.00 0.01 0.00 73 1008.4
20260902082652 62 257 1.0 2.0 0.00 0.01 0.00 72 1008.4
20260902082150 62 286 1.0 2.0 0.00 0.01 0.00 72 1008.3
20260902081650 62 320 0.0 2.0 0.00 0.01 0.00 73 1008.3
20260902081152 62 78 1.0 2.0 0.00 0.01 0.00 73 1008.3
20260902080651 61 17 1.0 2.0 0.00 0.01 0.00 76 1008.3
20260902080149 61 326 1.0 2.0 0.00 0.01 0.00 74 1008.2
20260902075651 61 258 1.0 2.0 0.00 0.01 0.00 76 1008.2
20260902075149 61 340 0.0 2.0 0.00 0.01 0.00 75 1008.2
20260902074648 61 94 1.0 3.0 0.00 0.01 0.00 76 1008.2
20260902074148 61 30 1.0 3.0 0.00 0.01 0.00 77 1008.3
20260902073646 60 348 0.0 2.0 0.00 0.01 0.00 78 1008.3
20260902073149 60 289 0.0 1.0 0.00 0.01 0.00 77 1008.2
20260902072152 59 279 1.0 3.0 0.00 0.01 0.00 80 1008.2
20260902071652 59 4 0.0 2.0 0.00 0.01 0.00 81 1008.1
20260902071155 58 351 1.0 2.0 0.00 0.01 0.00 82 1008.2
20260902070650 57 0 0.0 1.0 0.00 0.01 0.00 82 1008.2
20260902070150 58 302 1.0 2.0 0.00 0.01 0.00 83 1008.1
20260902065655 57 251 0.0 2.0 0.00 0.01 0.00 85 1008.1
20260902065150 56 298 1.0 1.0 0.00 0.01 0.00 86 1008.0
20260902064653 55 289 0.0 1.0 0.00 0.01 0.00 89 1008.0
20260902064150 55 334 0.0 1.0 0.00 0.01 0.00 88 1007.9
20260902063650 55 313 0.0 2.0 0.00 0.01 0.00 90 1008.0
20260902063151 54 283 0.0 2.0 0.00 0.01 0.00 91 1007.9
20260902062145 54 353 0.0 1.0 0.00 0.01 0.00 91 1007.9
20260902061646 54 0 0.0 1.0 0.00 0.01 0.00 91 1007.9
20260902061135 54 353 0.0 1.0 0.00 0.01 0.00 91 1007.9
20260902060637 54 0 0.0 1.0 0.00 0.01 0.00 92 1007.8
20260902060133 54 0 0.0 1.0 0.00 0.01 0.00 92 1007.9
20260902055633 54 350 0.0 1.0 0.00 0.01 0.00 93 1007.8
20260902055137 53 350 0.0 1.0 0.00 0.01 0.00 93 1007.8
20260902054630 53 0 0.0 1.0 0.00 0.01 0.00 93 1007.8
20260902054133 53 348 0.0 0.0 0.00 0.01 0.00 94 1007.8
20260902053629 53 348 0.0 1.0 0.00 0.01 0.00 93 1007.8
20260902053131 53 348 0.0 1.0 0.00 0.01 0.00 94 1007.7
20260902052130 53 348 0.0 2.0 0.00 0.01 0.00 93 1007.7
20260902051630 53 348 0.0 2.0 0.00 0.01 0.00 93 1007.7
20260902051129 53 340 0.0 2.0 0.00 0.01 0.00 93 1007.7
20260902050629 53 334 0.0 2.0 0.00 0.01 0.00 94 1007.8
20260902045625 53 355 0.0 2.0 0.00 0.01 0.00 94 1007.7
20260902045107 53 313 0.0 2.0 0.00 0.01 0.00 94 1007.6
20260902044111 53 348 0.0 1.0 0.00 0.01 0.00 94 1007.6
20260902043604 53 348 0.0 1.0 0.00 0.01 0.00 94 1007.7
20260902043058 53 348 0.0 1.0 0.00 0.01 0.00 94 1007.7
20260902042550 54 350 0.0 2.0 0.00 0.01 0.00 94 1007.6
20260902041050 55 0 1.0 1.0 0.00 0.01 0.00 94 1007.6
20260902040550 55 289 0.0 1.0 0.00 0.01 0.00 95 1007.7
20260902040048 55 0 0.0 1.0 0.00 0.01 0.00 95 1007.6
20260902035543 55 0 0.0 1.0 0.00 0.01 0.00 95 1007.5
20260902035044 56 331 0.0 0.0 0.00 0.01 0.00 95 1007.5
20260902034541 55 330 0.0 0.0 0.00 0.01 0.00 95 1007.5
20260902034033 55 330 0.0 0.0 0.00 0.01 0.00 95 1007.5
20260902033533 56 330 0.0 0.0 0.00 0.01 0.00 95 1007.4
20260902033033 56 330 0.0 0.0 0.00 0.01 0.00 95 1007.5
20260902032505 56 331 0.0 2.0 0.00 0.01 0.00 95 1007.4
20260902032006 56 330 0.0 2.0 0.00 0.01 0.00 95 1007.4
20260902031507 56 316 0.0 0.0 0.00 0.01 0.00 95 1007.4
20260902031004 56 316 0.0 0.0 0.00 0.01 0.00 95 1007.4
20260902030508 56 316 0.0 0.0 0.00 0.01 0.00 95 1007.4
20260902025951 56 316 0.0 0.0 0.00 0.01 0.00 95 1007.4
20260902025451 56 316 0.0 0.0 0.00 0.01 0.00 95 1007.4
20260902024950 56 320 0.0 1.0 0.00 0.01 0.00 95 1007.4
20260902023950 56 358 0.0 0.0 0.00 0.01 0.00 95 1007.4
20260902022951 56 358 0.0 1.0 0.00 0.01 0.00 95 1007.4
20260902022447 56 358 0.0 1.0 0.00 0.01 0.00 95 1007.3
20260902021947 56 357 0.0 0.0 0.00 0.01 0.00 95 1007.4
20260902021446 56 357 0.0 1.0 0.00 0.01 0.00 95 1007.3
20260902020946 56 357 0.0 1.0 0.00 0.01 0.00 95 1007.3
20260902020450 56 343 0.0 1.0 0.00 0.01 0.00 95 1007.3
20260902015951 56 343 0.0 1.0 0.00 0.01 0.00 95 1007.3
20260902015450 56 343 0.0 0.0 0.00 0.01 0.00 94 1007.4
20260902014950 56 343 0.0 0.0 0.00 0.01 0.00 95 1007.3
20260902013949 56 343 0.0 0.0 0.00 0.01 0.00 95 1007.3
20260902013450 56 343 0.0 0.0 0.00 0.01 0.00 95 1007.3
20260902012949 56 343 0.0 0.0 0.00 0.01 0.00 95 1007.4
20260902011950 56 343 0.0 0.0 0.00 0.01 0.00 95 1007.3
20260902011451 56 343 0.0 0.0 0.00 0.01 0.00 95 1007.3
20260902010949 56 343 0.0 0.0 0.00 0.01 0.00 95 1007.2
20260902010449 56 343 0.0 0.0 0.00 0.01 0.00 95 1007.4
20260902005451 56 343 0.0 0.0 0.00 0.01 0.00 95 1007.4
20260902004450 56 343 0.0 0.0 0.00 0.01 0.00 95 1007.4
20260902003950 55 343 0.0 0.0 0.00 0.01 0.00 95 1007.4
20260902002449 55 343 0.0 0.0 0.00 0.01 0.00 94 1007.3
20260902001951 55 343 0.0 0.0 0.00 0.01 0.00 94 1007.3
20260902001449 55 343 0.0 0.0 0.00 0.01 0.00 95 1007.3
20260902000950 55 343 0.0 0.0 0.00 0.01 0.00 94 1007.3
20260902000452 55 343 0.0 0.0 0.00 0.01 0.00 94 1007.3
20260901235950 55 343 0.0 0.0 0.00 0.01 0.00 94 1007.3
20260901235450 54 343 0.0 0.0 0.00 0.01 0.00 94 1007.3
20260901234950 54 343 0.0 0.0 0.00 0.01 0.00 93 1007.3
20260901234449 54 343 0.0 0.0 0.00 0.01 0.00 93 1007.3
20260901233950 54 343 0.0 0.0 0.00 0.01 0.00 93 1007.4
20260901233450 54 343 0.0 0.0 0.00 0.01 0.00 93 1007.4
20260901232950 55 343 0.0 0.0 0.00 0.01 0.00 93 1007.4
20260901232450 55 343 0.0 0.0 0.00 0.01 0.00 93 1007.3
20260901231953 55 343 0.0 0.0 0.00 0.01 0.00 93 1007.4
20260901231450 55 343 0.0 0.0 0.00 0.01 0.00 93 1007.5
20260901230949 55 343 0.0 0.0 0.00 0.01 0.00 93 1007.5
20260901230449 55 343 0.0 0.0 0.00 0.01 0.00 93 1007.6
20260901225949 55 343 0.0 0.0 0.00 0.01 0.00 93 1007.6
20260901224951 55 343 0.0 0.0 0.00 0.01 0.00 93 1007.6
20260901223949 55 343 0.0 0.0 0.00 0.01 0.00 93 1007.7
20260901222950 55 343 0.0 0.0 0.00 0.01 0.00 93 1007.5
20260901222450 55 343 0.0 0.0 0.00 0.01 0.00 93 1007.6
20260901221951 55 343 0.0 0.0 0.00 0.01 0.00 93 1007.6
20260901221449 55 343 0.0 0.0 0.00 0.01 0.00 93 1007.6
20260901220949 55 343 0.0 0.0 0.00 0.01 0.00 93 1007.6
20260901220454 55 343 0.0 0.0 0.00 0.01 0.00 93 1007.6
20260901215950 56 343 0.0 0.0 0.00 0.01 0.00 93 1007.6
20260901215450 56 343 0.0 0.0 0.00 0.01 0.00 93 1007.6
20260901214950 56 343 0.0 0.0 0.00 0.01 0.00 93 1007.5
20260901214450 56 343 0.0 0.0 0.00 0.01 0.00 93 1007.6
20260901213950 56 343 0.0 0.0 0.00 0.01 0.00 93 1007.6
20260901213450 56 343 0.0 0.0 0.00 0.01 0.00 93 1007.6
20260901212949 56 343 0.0 0.0 0.00 0.01 0.00 93 1007.6
20260901212449 56 343 0.0 0.0 0.00 0.01 0.00 93 1007.6
20260901211951 56 343 0.0 0.0 0.00 0.01 0.00 93 1007.6
20260901211452 56 343 0.0 0.0 0.00 0.01 0.00 93 1007.6
20260901210952 56 343 0.0 0.0 0.00 0.01 0.00 93 1007.5
20260901210449 56 343 0.0 0.0 0.00 0.01 0.00 93 1007.6
20260901205949 56 343 0.0 0.0 0.00 0.01 0.01 93 1007.6
20260901204950 56 343 0.0 0.0 0.00 0.01 0.01 93 1007.5
20260901204451 56 343 0.0 0.0 0.00 0.01 0.01 93 1007.6
20260901203949 57 343 0.0 0.0 0.00 0.01 0.01 93 1007.6
20260901203450 57 343 0.0 0.0 0.00 0.01 0.01 93 1007.6
20260901202950 57 343 0.0 0.0 0.00 0.01 0.01 93 1007.6
20260901202450 57 343 0.0 0.0 0.00 0.01 0.01 93 1007.6
20260901201949 57 343 0.0 0.0 0.00 0.01 0.01 93 1007.6
20260901200450 57 343 0.0 0.0 0.00 0.01 0.01 93 1007.6
20260901195950 57 343 0.0 0.0 0.00 0.01 0.01 93 1007.5
20260901195450 57 343 0.0 0.0 0.00 0.01 0.01 93 1007.5
20260901194449 57 343 0.0 0.0 0.00 0.01 0.01 92 1007.6
20260901193438 57 343 0.0 0.0 0.00 0.01 0.01 92 1007.5
20260901192936 58 343 0.0 0.0 0.00 0.01 0.01 92 1007.6
20260901192433 58 343 0.0 0.0 0.00 0.01 0.01 92 1007.6
20260901191930 58 343 0.0 0.0 0.00 0.01 0.01 92 1007.6
20260901191432 58 343 0.0 0.0 0.00 0.01 0.01 92 1007.6
20260901190930 58 343 0.0 0.0 0.00 0.01 0.01 92 1007.6
20260901190430 58 343 0.0 0.0 0.00 0.01 0.01 92 1007.7
20260901185431 59 343 0.0 0.0 0.00 0.01 0.01 92 1007.6
20260901184901 59 343 0.0 0.0 0.00 0.01 0.01 92 1007.6
20260901184403 59 343 0.0 0.0 0.00 0.01 0.01 92 1007.6
20260901183905 59 343 0.0 0.0 0.00 0.01 0.01 92 1007.6
20260901183410 59 343 0.0 0.0 0.00 0.01 0.01 92 1007.6
20260901182906 60 343 0.0 0.0 0.00 0.01 0.01 91 1007.6